Kingston, Jamaica

9:04 AM EST on May 25, 2017 (GMT -0500)
Norman Manley International

Weather History for MKJP - February, 2013

Change the Weather History Date:

Wednesday, February 20, 2013

  Actual Average Record
Temperature  
Mean Temperature 80 °F -  
Max Temperature 87 °F 84 °F 87 °F (1998)
Min Temperature 72 °F 75 °F 71 °F (2011)
Cooling Degree Days 14    
Growing Degree Days 30 (Base 50)    
Moisture  
Dew Point 71 °F    
Average Humidity 72    
Maximum Humidity 83    
Minimum Humidity 55    
Precipitation  
Precipitation 0.00 in - - ()
Sea Level Pressure  
Sea Level Pressure 29.94 in    
Wind  
Wind Speed 9 mph ()    
Max Wind Speed 25 mph    
Max Gust Speed -    
Visibility 7.7 miles    
Events      
Averages and records for this station are not official NWS values.
T = Trace of Precipitation, MM = Missing Value Source: Averaged Metar Reports

Daily Weather History Graph

Daily Weather History Graph

Search for Another Location

Airport or City:

Trip Planner

Search our weather history database for the weather conditions in past years. The results will help you decide how hot, cold, wet, or windy it might be!

Date:

Astronomy

Feb. 20, 2013 Rise Set
Actual Time 6:31 AM EST 6:10 PM EST
Civil Twilight 6:09 AM EST 6:32 PM EST
Nautical Twilight 5:43 AM EST 6:58 PM EST
Astronomical Twilight 5:18 AM EST 7:23 PM EST
Moon 1:54 PM EST (2/20) 2:25 AM EST (2/20)
Length of Visible Light 12h 23m
Length of Day
11h 39m
Waxing Gibbous, 76% of the Moon is Illuminated
Feb 20
Waxing Gibbous
Feb 25
Full
Mar 4
Last Quarter
Mar 11
New
Mar 19
First Quarter

Hourly Weather History & Observations

Time (EST) Temp. Heat Index Dew Point Humidity Pressure Visibility Wind Dir Wind Speed Gust Speed Precip Events Conditions
12:00 AM 77.0 °F - 69.8 °F 78% 30.01 in 6.2 mi NW 5.8 mph - N/A   Partly Cloudy
1:00 AM 78 °F - 70 °F 71% 29.99 in 12 mi NNW 6.9 mph - -   Haze
1:00 AM 77.0 °F - 69.8 °F 78% 29.98 in 6.2 mi NNW 6.9 mph - N/A   Partly Cloudy
2:00 AM 77.0 °F - 69.8 °F 78% 29.95 in 6.2 mi NNE 6.9 mph - N/A   Partly Cloudy
3:00 AM 77.0 °F - 69.8 °F 78% 29.95 in 6.2 mi North 5.8 mph - N/A   Partly Cloudy
4:00 AM 76 °F - 69 °F 73% 29.94 in 12 mi NNW 4.6 mph - -   Haze
4:00 AM 77.0 °F - 69.8 °F 78% 29.92 in 6.2 mi NNW 4.6 mph - N/A   Scattered Clouds
5:00 AM 77.0 °F - 69.8 °F 78% 29.92 in 6.2 mi NNW 4.6 mph - N/A   Partly Cloudy
6:00 AM 75.2 °F - 69.8 °F 83% 29.95 in 6.2 mi NNW 8.1 mph - N/A   Partly Cloudy
7:00 AM 76 °F - 71 °F 79% 29.98 in 15 mi NW 3.5 mph - -  
7:00 AM 77.0 °F - 71.6 °F 83% 29.98 in 6.2 mi NW 3.5 mph - N/A   Partly Cloudy
8:00 AM 78.8 °F - 69.8 °F 74% 29.98 in 6.2 mi NNW 4.6 mph - N/A   Partly Cloudy
8:10 AM 74 °F - 68 °F 76% 29.96 in 6 mi NNW 4.6 mph - -   Haze
9:00 AM 78.8 °F - 71.6 °F 78% 29.98 in 6.2 mi NNW 3.5 mph - N/A   Partly Cloudy
10:00 AM 82 °F - 70 °F 60% 30.00 in 12 mi NNW 3.5 mph - -   Haze
10:00 AM - - - N/A% - - NNW 3.5 mph - N/A   Unknown
11:00 AM 84.2 °F 90.9 °F 73.4 °F 70% 29.98 in 6.2 mi SE 8.1 mph - N/A   Partly Cloudy
12:00 PM 84.2 °F 90.9 °F 73.4 °F 70% 29.95 in 6.2 mi SE 25.3 mph - N/A   Partly Cloudy
1:00 PM 85 °F - 72 °F 57% 29.94 in 12 mi SE 24.2 mph - -   Haze
1:00 PM 84.2 °F 89.6 °F 71.6 °F 66% 29.92 in 6.2 mi SE 24.2 mph - N/A   Scattered Clouds
2:00 PM 84.2 °F 86.6 °F 66.2 °F 55% 29.92 in 6.2 mi SE 21.9 mph - N/A   Scattered Clouds
3:00 PM 84.2 °F 87.3 °F 68.0 °F 58% 29.89 in 6.2 mi SE 25.3 mph - N/A   Scattered Clouds
4:00 PM 84 °F - 71 °F 56% 29.88 in 12 mi SE 24.2 mph - -   Haze
4:00 PM 84.2 °F 89.6 °F 71.6 °F 66% 29.86 in 6.2 mi SE 24.2 mph - N/A   Partly Cloudy
5:00 PM 84.2 °F 89.6 °F 71.6 °F 66% 29.86 in 6.2 mi SE 24.2 mph - N/A   Partly Cloudy
6:00 PM 80.6 °F 84.6 °F 71.6 °F 74% 29.89 in 6.2 mi SE 21.9 mph - N/A   Scattered Clouds
7:00 PM 82 °F - 71 °F 62% 29.91 in 12 mi SE 18.4 mph - -   Haze
7:00 PM 82.4 °F 87.2 °F 71.6 °F 70% 29.89 in 6.2 mi SE 18.4 mph - N/A   Partly Cloudy
8:00 PM 80.6 °F 84.6 °F 71.6 °F 74% 29.92 in 6.2 mi NNW 11.5 mph - N/A   Scattered Clouds
9:00 PM 78.8 °F - 69.8 °F 74% 29.95 in 6.2 mi WNW 5.8 mph - N/A   Partly Cloudy
10:00 PM 79 °F - 71 °F 70% 29.96 in 12 mi West 5.8 mph - -   Haze
10:00 PM 78.8 °F - 71.6 °F 78% 29.95 in 6.2 mi West 5.8 mph - N/A   Partly Cloudy
11:00 PM 77.0 °F - 71.6 °F 83% 29.95 in 6.2 mi NW 6.9 mph - N/A   Partly Cloudy